CW2758 Weather Reports


Display with metric or nautical units.
time (UTC)temp
F
wind
direction
speed
MPH
gust
MPH
rain 1hr
in
rain 24hr
in
rain mn
in
humidity
%
barometer
mb
20181212160023 33 272 10.0 17.0 0.00 0.00 0.00 76 1010.6
20181212154535 32 283 9.0 19.0 0.00 0.00 0.00 77 1010.5
20181212153018 31 273 12.0 19.0 0.00 0.00 0.00 77 1010.3
20181212151515 31 272 11.0 18.0 0.00 0.00 0.00 79 1010.2
20181212150004 30 256 10.0 18.0 0.00 0.00 0.00 80 1010.1
20181212144502 30 255 10.0 18.0 0.00 0.00 0.00 81 1010.0
20181212143000 30 270 10.0 16.0 0.00 0.00 0.00 82 1009.8
20181212141646 29 265 8.0 13.0 0.00 0.00 0.00 82 1009.7
20181212140221 29 266 6.0 16.0 0.00 0.00 0.00 83 1009.6
20181212134625 29 261 6.0 11.0 0.00 0.00 0.00 84 1009.5
20181212133144 29 266 8.0 14.0 0.00 0.00 0.00 83 1009.4
20181212131615 29 258 7.0 13.0 0.00 0.00 0.00 83 1009.4
20181212130124 29 262 9.0 16.0 0.00 0.00 0.00 82 1009.4
20181212124605 30 264 11.0 18.0 0.00 0.00 0.00 81 1009.3
20181212123119 31 269 8.0 14.0 0.00 0.00 0.00 82 1008.8
20181212121624 32 260 12.0 19.0 0.00 0.00 0.00 81 1008.8
20181212120135 33 260 11.0 18.0 0.00 0.00 0.00 81 1008.6
20181212114548 34 252 12.0 19.0 0.00 0.00 0.00 82 1008.5
20181212113124 35 268 10.0 18.0 0.00 0.00 0.00 84 1008.2
20181212111542 36 263 8.0 13.0 0.00 0.00 0.00 83 1007.9
20181212110042 37 257 8.0 11.0 0.00 0.00 0.00 81 1007.8
20181212104551 37 265 7.0 12.0 0.00 0.00 0.00 79 1007.6
20181212103036 37 250 7.0 12.0 0.00 0.00 0.00 78 1007.5
20181212101548 38 252 3.0 11.0 0.00 0.00 0.00 74 1007.3
20181212100024 39 245 6.0 16.0 0.00 0.00 0.00 74 1007.2
20181212094520 38 214 3.0 10.0 0.00 0.00 0.00 74 1007.2
20181212093022 39 160 4.0 8.0 0.00 0.00 0.00 72 1007.2
20181212091520 39 143 4.0 11.0 0.00 0.00 0.00 70 1007.2
20181212090037 39 170 3.0 11.0 0.00 0.00 0.00 70 1007.2
20181212084515 39 160 5.0 12.0 0.00 0.00 0.00 70 1007.7
20181212083037 39 193 5.0 10.0 0.00 0.00 0.00 69 1007.7
20181212081506 40 216 5.0 12.0 0.00 0.00 0.00 69 1008.0
20181212080028 40 166 5.0 12.0 0.00 0.00 0.00 69 1008.1
20181212074502 40 164 6.0 12.0 0.00 0.00 0.00 67 1008.3
20181212073311 40 200 6.0 11.0 0.00 0.00 0.00 67 1008.6
20181212071701 40 143 7.0 14.0 0.00 0.00 0.00 66 1009.0
20181212070130 40 153 7.0 12.0 0.00 0.00 0.00 65 1009.2
20181212064626 40 164 7.0 14.0 0.00 0.00 0.00 65 1009.6
20181212063154 40 236 6.0 12.0 0.00 0.00 0.00 65 1009.5
20181212061645 40 164 5.0 12.0 0.00 0.00 0.00 65 1010.0
20181212060051 40 159 6.0 15.0 0.00 0.00 0.00 65 1010.2
20181212054603 40 177 5.0 12.0 0.00 0.00 0.00 67 1010.5
20181212053208 39 140 3.0 11.0 0.00 0.00 0.00 68 1010.8
20181212051608 39 156 4.0 12.0 0.00 0.00 0.00 67 1011.1
20181212050110 40 160 5.0 10.0 0.00 0.00 0.00 67 1011.5
20181212044628 40 189 6.0 11.0 0.00 0.00 0.00 67 1011.8
20181212043148 39 153 5.0 11.0 0.00 0.00 0.00 68 1011.9
20181212041615 39 146 5.0 11.0 0.00 0.00 0.00 69 1012.2
20181212040109 39 205 4.0 9.0 0.00 0.00 0.00 69 1012.4
20181212034556 39 145 4.0 10.0 0.00 0.00 0.00 69 1012.7
20181212033050 39 173 2.0 9.0 0.00 0.00 0.00 69 1013.1
20181212031553 39 141 3.0 7.0 0.00 0.00 0.00 70 1013.2
20181212030033 39 157 2.0 7.0 0.00 0.00 0.00 71 1013.6
20181212024535 38 127 2.0 7.0 0.00 0.00 0.00 71 1014.0
20181212023026 38 156 1.0 5.0 0.00 0.00 0.00 72 1014.2
20181212021526 38 156 1.0 7.0 0.00 0.00 0.00 72 1014.4
20181212020033 38 122 1.0 5.0 0.00 0.00 0.00 72 1014.6
20181212014515 38 148 0.0 7.0 0.00 0.00 0.00 72 1014.8
20181212013021 38 168 0.0 5.0 0.00 0.00 0.00 73 1015.3
20181212011507 37 148 1.0 5.0 0.00 0.00 0.00 75 1015.6
20181212010028 38 150 0.0 2.0 0.00 0.00 0.00 74 1015.7
20181212004509 38 177 0.0 2.0 0.00 0.00 0.00 74 1015.8
20181212003005 38 151 0.0 5.0 0.00 0.00 0.00 74 1015.6
20181212001505 38 151 1.0 5.0 0.00 0.00 0.00 74 1015.6
20181212000017 39 147 0.0 1.0 0.00 0.00 0.00 72 1015.9
20181211234503 39 150 0.0 1.0 0.00 0.00 0.00 72 1015.9
20181211233228 39 156 0.0 0.0 0.00 0.00 0.00 71 1015.9
20181211231734 40 157 0.0 1.0 0.00 0.00 0.00 70 1016.1
20181211230136 40 155 0.0 0.0 0.00 0.00 0.00 69 1016.0
20181211224752 41 158 0.0 0.0 0.00 0.00 0.00 67 1016.0
20181211223135 42 158 0.0 4.0 0.00 0.00 0.00 65 1016.1
20181211221625 42 139 0.0 0.0 0.00 0.00 0.00 63 1015.9
20181211220138 43 140 0.0 2.0 0.00 0.00 0.00 61 1015.7
20181211214625 44 174 0.0 4.0 0.00 0.00 0.00 59 1016.1
20181211213158 44 154 0.0 5.0 0.00 0.00 0.00 58 1016.2
20181211211643 44 140 1.0 5.0 0.00 0.00 0.00 58 1016.0
20181211210055 43 160 1.0 6.0 0.00 0.00 0.00 58 1016.1
20181211204807 44 150 2.0 7.0 0.00 0.00 0.00 58 1016.2
20181211203153 44 242 0.0 9.0 0.00 0.00 0.00 57 1016.0
20181211201628 45 265 2.0 7.0 0.00 0.00 0.00 55 1016.2
20181211200136 45 252 4.0 8.0 0.00 0.00 0.00 55 1016.4
20181211194639 44 256 3.0 7.0 0.00 0.00 0.00 55 1016.6
20181211193202 44 270 2.0 9.0 0.00 0.00 0.00 58 1016.9
20181211191622 43 254 2.0 10.0 0.00 0.00 0.00 57 1017.2
20181211190050 43 265 4.0 9.0 0.00 0.00 0.00 57 1017.3
20181211184611 43 270 5.0 12.0 0.00 0.00 0.00 57 1017.6
20181211183046 42 258 5.0 9.0 0.00 0.00 0.00 57 1017.7
20181211181557 42 272 5.0 10.0 0.00 0.00 0.00 58 1018.0
20181211180058 41 277 4.0 11.0 0.00 0.00 0.00 60 1018.2
20181211174559 40 285 7.0 11.0 0.00 0.00 0.00 59 1018.4
20181211173033 40 279 4.0 11.0 0.00 0.00 0.00 62 1018.5
20181211171524 39 276 0.0 10.0 0.00 0.00 0.00 68 1018.8
20181211170035 37 279 1.0 9.0 0.00 0.00 0.00 71 1019.0
20181211164517 36 252 3.0 12.0 0.00 0.00 0.00 71 1019.4
20181211163022 36 264 3.0 9.0 0.00 0.00 0.00 75 1019.5
20181211161511 34 254 3.0 9.0 0.00 0.00 0.00 76 1019.8